STARLINK-36748

Last updated on Tue Mar 10 2026 00:02:05 GMT+0000 (Coordinated Universal Time)

1 67693U 26025A 26068.28782304 .00158732 00000+0 10447-2 0 9995 2 67693 97.2839 179.7994 0002055 0.9196 359.2072 15.75206142 5875
UTC large
Height (km)
Speed (km/s)
/
Latitude / Longitude
Inclination (degrees)
Orbital Period (minutes)
Azimuth
Elevation
Range (km)
Doppler Factor

Next 0 passes for location: London (51.5072 / 0.1276)

Sorry there are no passes over London.